Gage, OK

11:33 PM CDT on May 24, 2018 (GMT -0500)
Gage

Weather History for KGAG - January, 2014

Change the Weather History Date:

Friday, January 24, 2014

  Actual Average Record
Temperature  
Mean Temperature 32 °F -  
Max Temperature 57 °F 52 °F 84 °F (1950)
Min Temperature 6 °F 23 °F 4 °F (1963)
Degree Days  
Heating Degree Days 34    
Moisture  
Dew Point 8 °F    
Average Humidity 46    
Maximum Humidity 76    
Minimum Humidity 15    
Precipitation  
Precipitation 0.00 in - - ()
Sea Level Pressure  
Sea Level Pressure 30.37 in    
Wind  
Wind Speed 12 mph (SW)    
Max Wind Speed 22 mph    
Max Gust Speed 30 mph    
Visibility 10 miles    
Events      
Averages and records for this station are not official NWS values.
T = Trace of Precipitation, MM = Missing Value Source: NWS Daily Summary

Daily Weather History Graph

Daily Weather History Graph

Search for Another Location

Airport or City:

Astronomy

Jan. 24, 2014 Rise Set
Actual Time 7:45 AM CST 5:57 PM CST
Civil Twilight 7:18 AM CST 6:24 PM CST
Nautical Twilight 6:47 AM CST 6:55 PM CST
Astronomical Twilight 6:16 AM CST 7:26 PM CST
Moon 1:17 AM CST (1/24) 12:15 PM CST (1/24)
Length of Visible Light 11h 06m
Length of Day
10h 11m
Last Quarter, 44% of the Moon is Illuminated
Jan 24
Last Quarter
Jan 30
New
Feb 6
First Quarter
Feb 14
Full
Feb 22
Last Quarter

Hourly Weather History & Observations

Time (CST) Temp. Windchill Dew Point Humidity Pressure Visibility Wind Dir Wind Speed Gust Speed Precip Events Conditions
12:53 AM 6.1 °F -7.8 °F -2.9 °F 67% 30.79 in 10.0 mi SW 9.2 mph - N/A   Clear
1:53 AM 6.1 °F -6.8 °F -2.0 °F 69% 30.75 in 10.0 mi SW 8.1 mph - N/A   Clear
2:53 AM 9.0 °F -5.1 °F -0.0 °F 67% 30.70 in 10.0 mi SW 10.4 mph - N/A   Clear
3:53 AM 6.1 °F -5.6 °F -0.0 °F 76% 30.66 in 10.0 mi SW 6.9 mph - N/A   Clear
4:53 AM 9.0 °F -5.1 °F 1.9 °F 73% 30.61 in 10.0 mi SSW 10.4 mph - N/A   Clear
5:53 AM 10.0 °F -5.9 °F 1.9 °F 70% 30.57 in 10.0 mi SSW 13.8 mph - N/A   Clear
6:53 AM 10.9 °F -2.6 °F 3.0 °F 70% 30.56 in 10.0 mi SW 10.4 mph - N/A   Clear
7:53 AM 14.0 °F -2.0 °F 5.0 °F 67% 30.52 in 10.0 mi SW 16.1 mph - N/A   Clear
8:53 AM 19.0 °F 3.6 °F 8.1 °F 62% 30.49 in 10.0 mi SW 18.4 mph 24.2 mph N/A   Clear
9:53 AM 28.0 °F 16.1 °F 10.9 °F 49% 30.44 in 10.0 mi SW 16.1 mph - N/A   Clear
10:53 AM 36.0 °F 24.7 °F 12.9 °F 39% 30.40 in 10.0 mi WSW 21.9 mph 29.9 mph N/A   Clear
11:53 AM 42.1 °F 33.1 °F 12.9 °F 31% 30.36 in 10.0 mi WSW 20.7 mph - N/A   Clear
12:53 PM 46.9 °F - 14.0 °F 27% 30.31 in 10.0 mi WSW 20.7 mph 25.3 mph N/A   Clear
1:53 PM 50.0 °F - 14.0 °F 24% 30.26 in 10.0 mi WSW 15.0 mph 23.0 mph N/A   Clear
2:53 PM 55.0 °F - 16.0 °F 22% 30.20 in 10.0 mi WSW 16.1 mph - N/A   Clear
3:53 PM 57.0 °F - 10.9 °F 16% 30.17 in 10.0 mi WSW 13.8 mph - N/A   Clear
4:53 PM 55.9 °F - 9.0 °F 15% 30.16 in 10.0 mi WSW 12.7 mph - N/A   Clear
5:53 PM 46.9 °F - 6.1 °F 19% 30.17 in 10.0 mi WSW 9.2 mph - N/A   Clear
6:53 PM 39.0 °F 31.8 °F 7.0 °F 27% 30.18 in 10.0 mi SW 11.5 mph - N/A   Clear
7:53 PM 39.0 °F 31.4 °F 15.1 °F 38% 30.16 in 10.0 mi SW 12.7 mph - N/A   Clear
8:53 PM 33.1 °F 24.9 °F 15.1 °F 48% 30.15 in 10.0 mi WSW 10.4 mph - N/A   Clear
9:53 PM 30.0 °F 21.1 °F 12.9 °F 49% 30.14 in 10.0 mi WSW 10.4 mph - N/A   Clear
10:53 PM 36.0 °F 26.7 °F 16.0 °F 44% 30.12 in 10.0 mi West 15.0 mph - N/A   Clear
11:53 PM 37.9 °F 28.9 °F 15.1 °F 39% 30.11 in 10.0 mi WSW 16.1 mph - N/A   Clear